EHI
0 0 0 0 0 0 0 0 0 0 0 0 0 0 0 0 0 0 0 0 0 0 0 0 0 0 0 0 0 0 0 0 0 0 0 0 0 0 0 0 0 0 0 0
0 0 0 0 0 0 0 0 0 0 0 0 0 0 0 0 0 0 0 0 0 0 0 0 0 0 0 0 0 0 0 0 0 0 0 0 0 0 0 0 0 0 0 0
0 0 0 0 0 0 0 0 0 0 0 0 0 0 0 0 0 0 0 0 0 0 0 0 0 0 0 0 0 0 0 0 0 0 0 0 0 0 0 0 0 0 0 0
0 0 0 0 0 0 0 0 0 0 0 0 0 0 0 0 0 0 0 0 0 0 0 0 0 0 0 0 0 0 0 0 0 0 0 0 0 0 0 0 0 0 0 0
0 0 0 0 0 0 0 0 0 0 0 0 0 0 0 0 0 0 0 0 0 0 0 0 0 0 0 0 0 0 0 0 0 0 0 0 0 0 0 0 0 0 0 0
0 0 0 0 0 0 0 0 0 0 0 0 0 0 0 0 0 0 0 0 0 0 0 0 0 0 0 0 0 0 0 0 0 0 0 0 0 0 0 0 0 0 0 0
0 0 0 0 0 0 0 0 0 0 0 0 0 0 0 0 0 0 0 0 0 0 0 0 0 0 0 0 0 0 0 0 0 0 0 0 0 0 0 0 0 0 0 0
0 0 0 0 0 0 0 0 0 0 0 0 0 0 0 0 0 0 0 0 0 0 0 0 0 0 0 0 0 0 0 0 0 0 0 0 0 0 0 0 0 0 0 0
0 0 0 0 0 0 0 0 0 0 0 0 0 0 0 0 0 0 0 0 0 0 0 0 0 0 0 0 0 0 0 0 0 0 0 0 0 0 0 0 0 0 0 0
0 0 0 0 0 0 0 0 0 0 0 0 0 0 0 0 0 0 0 0 0 0 0 0 0 0 0 0 0 0 0 0 0 0 0 0 0 0 0 0 0 0 0 0
0 0 0 0 0 0 0 0 0 0 0 0 0 0 0 0 0 0 0 0 0 0 0 0 0 0 0 0 0 0 0 0 0 0 0 0 0 0 0 0 0 0 0 0
0 0 0 0 0 0 0 0 0 0 0 0 0 0 0 0 0 0 0 0 0 0 0 0 0 0 0 0 0 0 0 0 0 0 0 0 0 0 0 0 0 0 0 0
0 0 0 0 0 0 0 0 0 0 0 0 0 0 0 0 0 0 0 0 0 0 0 0 0 0 0 0 0 0 0 0 0 0 0 0 0 0 0 0 0 0 0 0
0 0 0 0 0 0 0 0 0 0 0 0 0 0 0 0 0 0 0 0 0 0 0 0 0 0 0 0 0 0 0 0 0 0 0 0 0 0 0 0 0 0 0 0
0 0 0 0 0 0 0 0 0 0 0 0 0 0 0 0 0 0 0 0 0 0 0 0 0 0 0 0 0 0 0 0 0 0 0 0 0 0 0 0 0 0 0 0
0 0 0 0 0 0 0 0 0 0 0 0 0 0 0 0 0 0 0 0 0 0 0 0 0 0 0 0 0 0 0 0 0 0 0 0 0 0 0 0 0 0 0 0
0 0 0 0 0 0 0 0 0 0 0 0 0 0 0 0 0 0 0 0 0 0 0 0 0 0 0 0 0 0 0 0 0 0 0 0 0 0 0 0 0 0 0 0
0 0 0 0 0 0 0 0 0 0 0 0 0 0 0 0 0 0 0 0 0 0 0 0 0 0 0 0 0 0 0 0 0 0 0 0 0 0 0 0 0 0 0 0
0 0 0 0 0 0 0 0 0 0 0 0 0 0 0 0 0 0 0 0 0 0 0 0 0 0 0 0 0 0 0 0 0 0 0 0 0 0 0 0 0 0 0 0
0 0 0 0 0 0 0 0 0 0 0 0 0 0 0 0 0 0 0 0 0 0 0 0 0 0 0 0 0 0 0 0 0 0 0 0 0 0 0 0 0 0 0 0
0 0 0 0 0 0 0 0 0 0 0 0 0 0 0 0 0 0 0 0 0 0 0 0 0 0 0 0 0 0 0 0 0 0 0 0 0 0 0 0 0 0 0 0
0 0 0 0 0 0 0 0 0 0 0 0 0 0 0 0 0 0 0 0 0 0 0 0 0 0 0 0 0 0 0 0 0 0 0 0 0 0 0 0 0 0 0 0
0 0 0 0 0 0 0 0 0 0 0 0 0 0 0 0 0 0 0 0 0 0 0 0 0 0 0 0 0 0 0 0 0 0 0 0 0 0 0 0 0 0 0 0
0 0 0 0 0 0 0 0 0 0 0 0 0 0 0 0 0 0 0 0 0 0 0 0 0 0 0 0 0 0 0 0 0 0 0 0 0 0 0 0 0 0 0 0
0 0 0 0 0 0 0 0 0 0 0 0 0 0 0 0 0 0 0 0 0 0 0 0 0 0 0 0 0 0 0 0 0 0 0 0 0 0 0 0 0 0 0 0
0 0 0 0 0 0 0 0 0 0 0 0 0 0 0 0 0 0 0 0 0 0 0 0 0 0 0 0 0 0 0 0 0 0 0 0 0 0 0 0 0 0 0 0
0 0 0 0 0 0 0 0 0 0 0 0 0 0 0 0 0 0 0 0 0 0 0 0 0 0 0 0 0 0 0 0 0 0 0 0 0 0 0 0 0 0 0 0
Wind_Speed
5 5 4 6 7 7 8 9 10 11 11 16 11 6 6 6 6 6 6 4 5 4 3 3 2 3 8 1 3 4 3 3 3 3 4 4 6 8 7 6 6 5 5 5
3 5 6 8 10 8 9 7 10 8 13 14 8 4 6 7 6 6 4 5 7 6 6 6 6 5 3 3 2 2 2 2 3 3 3 4 5 7 6 6 5 6 6 5
4 2 3 8 8 6 6 8 8 10 14 4 5 7 9 8 6 6 5 5 7 6 6 6 5 5 2 0 1 2 3 2 2 4 3 5 7 8 6 5 5 6 5 5
2 1 5 9 3 5 6 9 11 11 10 7 7 5 6 7 6 7 6 6 7 6 6 5 3 2 2 1 1 3 4 4 3 3 5 5 7 7 6 5 6 5 4 4
2 4 9 7 7 4 5 13 9 9 13 5 2 2 8 9 9 10 7 6 6 6 5 4 3 2 1 2 1 3 3 3 3 3 5 6 4 3 4 5 5 5 5 5
2 3 8 7 6 3 3 10 6 7 10 4 6 2 11 8 5 6 7 6 6 6 5 4 3 2 2 3 4 4 3 3 3 4 4 4 4 1 1 5 5 6 6 5
5 6 10 7 3 2 3 11 4 4 7 8 8 12 6 1 1 3 5 7 7 7 5 5 4 3 4 4 4 4 3 2 3 3 3 3 3 2 4 7 8 6 7 5
3 5 8 3 1 4 8 5 5 6 9 10 12 10 5 4 4 4 6 7 8 7 6 4 4 4 4 4 3 3 3 3 3 4 4 3 3 3 5 9 8 6 6 5
8 10 10 8 9 11 7 9 13 12 14 11 10 10 8 6 6 7 8 8 8 8 7 5 4 6 6 5 4 4 5 4 3 3 3 3 3 3 5 7 7 5 5 5
9 16 14 13 15 14 13 11 13 12 11 8 12 12 8 7 6 7 8 8 7 7 7 6 7 6 5 4 5 5 5 4 3 3 3 3 4 3 4 6 5 4 5 5
9 15 15 17 13 13 12 9 10 11 9 11 13 13 11 8 9 9 9 7 8 8 9 9 8 7 7 7 8 7 7 5 4 4 4 4 3 2 3 4 6 7 6 5
16 19 15 15 17 14 10 11 12 11 9 11 13 15 10 9 10 9 9 8 9 10 10 9 8 8 7 8 10 9 7 6 5 5 4 3 4 5 7 3 6 7 9 7
11 15 15 18 19 19 17 17 16 12 12 12 12 14 13 11 11 12 11 11 12 13 12 10 9 9 9 10 10 9 8 7 7 6 5 4 4 5 5 5 7 7 9 9
10 11 12 13 17 18 16 14 16 14 13 13 13 12 13 12 11 13 14 15 14 11 10 10 11 11 11 11 10 9 8 8 8 7 6 6 6 5 5 6 5 4 3 3
13 10 9 12 15 15 15 13 14 15 14 13 12 12 14 14 15 17 16 13 11 11 11 11 12 11 11 12 11 10 8 7 7 7 7 7 6 6 5 5 4 4 3 2
17 15 13 10 10 12 16 18 16 18 17 13 8 7 11 14 15 14 13 14 14 14 14 14 13 12 12 13 12 10 9 9 8 7 7 7 6 6 6 6 5 5 5 5
20 18 16 13 11 8 10 12 14 16 17 18 17 13 8 14 14 14 15 18 18 16 15 15 14 12 13 14 13 10 9 9 10 8 7 7 7 8 7 7 7 6 7 6
15 16 16 14 12 9 6 7 8 11 13 17 18 20 16 15 19 18 16 16 15 14 14 14 14 13 13 14 12 10 9 9 9 9 8 8 8 8 8 7 8 8 8 7
19 18 18 16 15 10 6 4 5 6 8 9 14 19 21 15 11 10 10 15 16 15 16 16 19 18 15 16 15 10 10 10 10 9 8 8 7 7 7 7 8 9 9 7
18 20 20 20 19 15 10 8 7 6 5 4 5 10 17 18 14 6 4 10 14 17 17 19 20 17 16 17 18 12 12 12 12 10 9 9 8 8 8 8 8 8 8 8
16 17 18 20 20 18 14 12 11 9 5 4 3 2 7 16 16 8 4 9 13 11 11 17 17 15 14 15 16 13 12 12 12 11 11 10 10 9 8 8 8 8 8 8
15 15 17 19 20 20 16 14 14 13 7 8 7 4 2 7 16 14 9 8 9 8 9 10 13 17 18 19 14 14 13 13 12 11 11 10 10 10 10 10 9 9 9 9
15 16 19 20 20 19 19 17 16 14 11 10 10 9 6 6 4 10 14 14 9 11 11 12 15 20 22 17 14 15 15 14 13 12 11 11 11 11 10 11 11 10 9 9
15 18 22 22 20 18 18 17 15 12 11 11 9 8 8 7 6 8 12 15 10 10 11 11 14 19 19 14 13 14 14 14 14 13 12 11 10 10 10 10 9 9 10 10
11 13 16 17 15 15 16 16 14 11 9 10 11 9 8 7 7 7 7 10 11 8 8 12 15 16 14 14 15 15 14 14 14 14 13 12 11 10 10 10 10 10 10 10
14 13 13 14 13 13 12 11 9 9 9 10 12 10 7 7 6 5 5 8 8 3 4 5 7 8 10 13 15 16 16 16 16 15 15 14 13 12 11 11 11 10 9 9
15 16 13 13 13 12 11 12 9 9 10 11 11 12 9 8 7 6 6 7 6 4 4 4 5 7 10 13 14 15 14 13 14 14 14 12 11 10 10 10 9 9 9 9
Wind_Direction
236 233 217 241 231 189 201 215 228 251 231 256 260 250 253 254 272 296 297 249 180 165 133 107 228 223 259 353 358 359 58 117 150 144 143 147 117 112 107 98 98 96 79 62
269 257 242 260 261 227 229 232 243 263 268 258 254 236 252 254 263 274 269 226 189 187 189 184 199 224 275 21 1 14 58 110 177 163 151 122 123 116 103 96 85 73 63 60
260 286 322 272 248 224 219 217 213 232 251 239 240 233 243 250 251 252 237 207 193 194 195 199 201 202 206 75 327 102 104 116 140 141 128 103 122 126 126 111 97 77 66 75
222 55 240 252 251 218 222 250 224 246 256 218 227 240 241 237 235 245 233 220 216 206 196 193 194 212 276 337 67 98 91 90 91 89 101 111 120 133 140 123 107 86 58 60
181 214 265 283 262 210 220 269 240 231 257 230 185 318 280 238 218 229 209 205 201 191 181 183 207 236 268 278 201 153 119 96 97 104 91 90 103 140 141 120 105 84 56 58
208 245 263 249 251 164 122 281 241 217 249 187 132 254 270 261 216 220 191 186 182 179 170 181 214 232 241 228 193 170 156 128 118 111 115 137 142 140 96 109 110 99 80 64
231 248 270 266 290 121 205 268 280 232 241 166 187 222 239 249 209 218 180 181 167 165 177 196 203 185 200 199 192 167 145 124 119 133 129 141 130 94 106 112 106 96 85 63
266 276 278 267 349 222 246 268 271 267 246 206 222 239 242 241 230 204 179 177 170 168 187 198 197 186 191 196 191 156 144 157 166 147 134 134 118 102 113 115 113 111 105 87
228 241 252 255 258 260 240 253 275 272 263 231 226 234 230 229 226 211 191 179 175 176 178 193 200 193 190 198 167 153 160 172 161 118 112 106 110 123 124 135 140 143 132 132
265 264 261 275 278 273 269 255 261 254 251 223 224 235 218 209 214 199 191 183 174 171 176 197 204 201 205 179 157 152 157 158 143 139 140 111 105 128 141 153 149 148 151 152
258 280 289 286 267 259 265 260 259 264 245 233 232 234 215 196 201 197 191 181 173 181 188 207 201 198 192 175 163 163 162 161 153 139 135 115 100 120 166 167 172 166 165 160
287 288 290 279 276 270 253 262 266 256 252 240 225 232 208 198 196 187 188 178 181 190 196 209 199 196 183 171 166 165 167 170 163 147 133 130 128 88 48 91 138 151 150 148
294 304 292 280 279 273 266 262 262 253 242 247 233 223 206 196 188 184 186 182 194 199 201 199 194 192 182 173 169 171 173 170 165 159 151 152 147 139 119 81 81 116 141 141
323 328 319 321 322 316 307 286 274 261 243 230 232 217 209 195 176 181 190 194 199 199 195 190 187 191 179 172 171 173 170 165 167 169 166 169 169 164 151 144 137 119 122 133
337 342 317 323 340 351 350 341 317 293 279 261 234 213 203 192 186 193 196 190 184 188 189 186 189 195 173 171 174 174 171 171 171 175 177 174 173 168 164 162 163 158 161 180
337 333 332 339 343 356 2 360 354 341 328 306 281 237 214 205 200 195 187 172 175 189 192 187 192 192 173 174 176 176 179 176 174 178 177 178 179 176 174 177 182 187 198 194
348 333 332 339 330 341 357 357 359 3 357 352 337 311 255 228 210 189 188 184 190 196 189 187 191 183 177 176 176 178 179 180 181 185 189 189 191 195 192 188 193 202 221 208
316 319 320 329 321 324 333 336 348 354 354 350 340 328 320 252 216 199 192 186 184 185 185 186 183 180 180 179 179 179 179 182 185 193 194 191 195 198 198 200 205 211 226 219
326 321 319 323 319 315 306 302 318 314 317 336 329 329 327 310 257 229 183 168 177 191 194 180 179 180 183 183 178 180 183 185 188 195 197 197 195 194 194 200 209 215 222 211
310 312 318 317 315 316 305 284 266 265 281 287 322 345 337 332 326 317 156 193 198 203 190 179 176 183 185 183 180 184 189 190 191 195 198 198 201 202 205 209 214 219 218 211
299 304 308 310 311 312 310 307 299 280 250 234 237 44 350 321 309 304 219 206 228 225 189 180 179 183 184 182 183 192 195 195 195 196 196 199 202 206 209 212 213 215 214 214
298 303 304 307 310 309 310 309 299 283 228 206 219 211 96 334 318 320 307 263 248 205 192 188 192 189 185 183 185 195 200 203 203 200 197 197 200 202 206 209 211 213 213 213
309 312 312 309 305 301 301 300 297 292 281 254 232 228 208 181 254 304 307 287 245 197 196 200 197 191 184 180 189 193 196 200 204 208 204 198 199 202 203 204 207 210 212 214
317 319 315 310 303 298 296 299 301 299 299 293 279 263 252 230 216 239 269 276 257 205 196 204 202 192 185 190 194 199 197 197 199 204 207 202 199 198 199 201 202 205 208 212
291 298 305 309 309 304 298 298 302 297 296 304 304 294 280 257 236 243 255 263 253 217 200 213 213 197 192 200 199 199 200 199 200 200 201 197 196 198 197 197 201 202 204 208
276 284 290 291 290 290 293 292 291 295 303 303 300 298 293 283 265 259 263 263 261 218 200 216 214 200 200 202 205 207 202 202 197 197 197 196 193 195 199 197 199 201 204 206
289 293 299 296 291 290 289 286 286 294 302 297 291 289 291 287 279 271 277 281 275 258 231 226 226 212 206 203 205 211 207 204 205 201 198 190 185 184 192 196 200 202 206 207